This demonstration page uses our WeatherBlox Daily Observations layout. Learn more.

Left ArrowRight Arrow

Hourly Observations for April 15, 2016

Temp ( °F °C ) Dew Point ( °F °C ) Humidity (%) Winds ( mph kmh ) Pressure ( in mb ) Visibility ( mi km ) Precip ( " mm )
12:51 am 00:51 Clear 69 20.6 34 1.1 27 27 NW 12 19 29.59 1002 10 16 0.00 0.00
1:51 am 01:51 Clear 67 19.4 35 1.7 31 31 NW 10 17 29.58 1002 10 16 0.00 0.00
2:51 am 02:51 Clear 64 17.8 36 2.2 35 35 WSW 7 11 29.58 1002 10 16 0.00 0.00
3:51 am 03:51 Clear 61 16.1 37 2.8 41 41 WSW 8 13 29.58 1002 10 16 0.00 0.00
4:51 am 04:51 Clear 58 14.4 36 2.2 44 44 SE 3 6 29.58 1002 10 16 0.00 0.00
5:51 am 05:51 Sunny 54 12.2 37 2.8 53 53 ESE 3 6 29.59 1002 10 16 0.00 0.00
6:51 am 06:51 Sunny 60 15.6 38 3.3 44 44 SE 3 6 29.60 1002 10 16 0.00 0.00
7:51 am 07:51 Sunny 63 17.2 36 2.2 37 37 SSW 6 9 29.62 1003 10 16 0.00 0.00
8:51 am 08:51 Sunny 67 19.4 35 1.7 31 31 W 3 6 29.61 1003 10 16 0.00 0.00
9:51 am 09:51 Sunny 72 22.2 30 -1.1 21 21 W 8 13 29.60 1002 10 16 0.00 0.00
10:51 am 10:51 Sunny 74 23.3 29 -1.7 19 19 S 7 11 29.57 1001 10 16 0.00 0.00
11:51 am 11:51 Sunny 78 25.6 31 -0.6 18 18 VRB 7 11 29.52 1000 10 16 0.00 0.00
12:51 pm 12:51 Sunny 80 26.7 29 -1.7 15 15 W 14 22 29.49 999 10 16 0.00 0.00
1:51 pm 13:51 Sunny 81 27.2 29 -1.7 15 15 WNW 13 20 29.46 998 10 16 0.00 0.00
2:51 pm 14:51 Partly Cloudy 79 26.1 30 -1.1 17 17 WNW 22 35 29.44 997 10 16 0.00 0.00
3:51 pm 15:51 Mostly Sunny 79 26.1 27 -2.8 15 15 WNW 33 54 29.43 997 10 16 0.00 0.00
4:51 pm 16:51 Sunny 76 24.4 26 -3.3 16 16 WNW 33 54 29.45 997 10 16 0.00 0.00
5:51 pm 17:51 Sunny 73 22.8 24 -4.4 16 16 WNW 30 48 29.48 998 10 16 0.00 0.00
6:51 pm 18:51 Clear 69 20.6 22 -5.6 17 17 WNW 28 44 29.51 999 10 16 0.00 0.00
7:51 pm 19:51 Clear 65 18.3 15 -9.4 14 14 WNW 23 37 29.56 1001 10 16 0.00 0.00
8:51 pm 20:51 Clear 63 17.2 11 -11.7 13 13 WNW 21 33 29.60 1002 10 16 0.00 0.00
9:51 pm 21:51 Mostly Clear 60 15.6 11 -11.7 14 14 WNW 14 22 29.62 1003 10 16 0.00 0.00
10:51 pm 22:51 Mostly Clear 58 14.4 13 -10.6 17 17 W 13 20 29.63 1003 10 16 0.00 0.00
11:51 pm 23:51 Clear 57 13.9 15 -9.4 19 19 WSW 15 24 29.62 1003 10 16 0.00 0.00

Powered by AerisWeather